| time (UTC) | temp F | wind direction | speed MPH | gust MPH | rain 1hr in | rain 24hr in | rain mn in | humidity % | barometer mb |
| 20260508033505 | 47 | 360 | 0.0 | 0.0 | 0.00 | 0.20 | 0.18 | 89 | 1009.4 |
| 20260508033011 | 47 | 360 | 0.0 | 0.0 | 0.00 | 0.20 | 0.18 | 87 | 1009.4 |
| 20260508032504 | 48 | 360 | 0.0 | 0.0 | 0.00 | 0.20 | 0.18 | 88 | 1009.5 |
| 20260508032010 | 47 | 360 | 0.0 | 0.0 | 0.00 | 0.20 | 0.18 | 88 | 1009.6 |
| 20260508031515 | 47 | 360 | 0.0 | 0.0 | 0.00 | 0.21 | 0.18 | 87 | 1009.6 |
| 20260508031007 | 48 | 360 | 0.0 | 0.0 | 0.00 | 0.23 | 0.18 | 87 | 1009.6 |
| 20260508030506 | 48 | 360 | 0.0 | 0.0 | 0.00 | 0.24 | 0.18 | 86 | 1009.6 |
| 20260508030020 | 49 | 360 | 0.0 | 0.0 | 0.00 | 0.28 | 0.18 | 86 | 1009.6 |
| 20260508025509 | 49 | 360 | 0.0 | 0.0 | 0.00 | 0.35 | 0.18 | 86 | 1009.6 |
| 20260508025008 | 49 | 360 | 0.0 | 0.0 | 0.00 | 0.37 | 0.18 | 85 | 1009.6 |
| 20260508024525 | 49 | 360 | 0.0 | 0.0 | 0.00 | 0.37 | 0.18 | 84 | 1009.6 |
| 20260508024007 | 49 | 360 | 0.0 | 2.0 | 0.00 | 0.37 | 0.18 | 84 | 1009.7 |
| 20260508023513 | 49 | 360 | 0.0 | 2.0 | 0.00 | 0.37 | 0.18 | 85 | 1009.8 |
| 20260508023028 | 49 | 360 | 0.0 | 2.0 | 0.00 | 0.37 | 0.18 | 85 | 1009.8 |
| 20260508022503 | 49 | 360 | 0.0 | 0.0 | 0.00 | 0.37 | 0.18 | 84 | 1009.8 |
| 20260508022006 | 49 | 360 | 0.0 | 0.0 | 0.00 | 0.37 | 0.18 | 83 | 1009.9 |
| 20260508021521 | 50 | 188 | 0.0 | 0.0 | 0.00 | 0.37 | 0.18 | 82 | 1009.9 |
| 20260508021006 | 50 | 188 | 0.0 | 0.0 | 0.00 | 0.37 | 0.18 | 82 | 1009.8 |
| 20260508020505 | 50 | 360 | 0.0 | 0.0 | 0.00 | 0.37 | 0.18 | 82 | 1009.8 |
| 20260508020016 | 50 | 360 | 0.0 | 0.0 | 0.00 | 0.37 | 0.18 | 81 | 1009.7 |
| 20260508015505 | 50 | 188 | 0.0 | 0.0 | 0.00 | 0.37 | 0.18 | 81 | 1009.7 |
| 20260508015007 | 50 | 188 | 0.0 | 0.0 | 0.00 | 0.37 | 0.18 | 80 | 1009.7 |
| 20260508014520 | 51 | 188 | 0.0 | 0.0 | 0.00 | 0.37 | 0.18 | 79 | 1009.6 |
| 20260508014009 | 51 | 188 | 0.0 | 0.0 | 0.00 | 0.37 | 0.18 | 79 | 1009.6 |
| 20260508013517 | 51 | 188 | 0.0 | 0.0 | 0.00 | 0.37 | 0.18 | 78 | 1009.6 |
| 20260508013037 | 52 | 188 | 0.0 | 0.0 | 0.00 | 0.37 | 0.18 | 76 | 1009.6 |
| 20260508012511 | 52 | 188 | 0.0 | 0.0 | 0.00 | 0.37 | 0.18 | 75 | 1009.4 |
| 20260508012007 | 53 | 188 | 0.0 | 2.0 | 0.00 | 0.37 | 0.18 | 74 | 1009.5 |
| 20260508011529 | 54 | 188 | 0.0 | 2.0 | 0.00 | 0.37 | 0.18 | 73 | 1009.5 |
| 20260508011004 | 54 | 188 | 0.0 | 2.0 | 0.00 | 0.37 | 0.18 | 72 | 1009.5 |
| 20260508010502 | 54 | 190 | 1.0 | 4.0 | 0.00 | 0.37 | 0.18 | 71 | 1009.5 |
| 20260508010016 | 54 | 211 | 1.0 | 4.0 | 0.00 | 0.37 | 0.18 | 70 | 1009.4 |
| 20260508005508 | 55 | 223 | 1.0 | 3.0 | 0.00 | 0.37 | 0.18 | 69 | 1009.3 |
| 20260508005008 | 55 | 200 | 2.0 | 3.0 | 0.00 | 0.37 | 0.18 | 68 | 1009.3 |
| 20260508004534 | 55 | 200 | 0.0 | 2.0 | 0.00 | 0.37 | 0.18 | 67 | 1009.3 |
| 20260508004004 | 55 | 221 | 1.0 | 3.0 | 0.00 | 0.37 | 0.18 | 66 | 1009.3 |
| 20260508003507 | 56 | 195 | 1.0 | 4.0 | 0.00 | 0.37 | 0.18 | 65 | 1009.2 |
| 20260508003004 | 56 | 186 | 0.0 | 4.0 | 0.00 | 0.37 | 0.18 | 64 | 1009.0 |
| 20260508002502 | 56 | 201 | 1.0 | 6.0 | 0.00 | 0.37 | 0.18 | 63 | 1009.0 |
| 20260508002003 | 56 | 181 | 1.0 | 7.0 | 0.00 | 0.37 | 0.18 | 62 | 1008.9 |
| 20260508001513 | 57 | 211 | 1.0 | 7.0 | 0.00 | 0.37 | 0.18 | 61 | 1008.9 |
| 20260508001003 | 57 | 214 | 3.0 | 8.0 | 0.00 | 0.37 | 0.18 | 59 | 1008.7 |
| 20260508000503 | 58 | 173 | 2.0 | 8.0 | 0.00 | 0.37 | 0.18 | 56 | 1008.6 |
| 20260508000009 | 58 | 190 | 1.0 | 3.0 | 0.00 | 0.37 | 0.18 | 56 | 1008.5 |
| 20260507235504 | 58 | 36 | 0.0 | 0.0 | 0.00 | 0.37 | 0.18 | 53 | 1008.3 |
| 20260507235004 | 58 | 36 | 0.0 | 0.0 | 0.00 | 0.37 | 0.18 | 52 | 1008.3 |
| 20260507234508 | 58 | 36 | 0.0 | 0.0 | 0.00 | 0.37 | 0.18 | 50 | 1008.4 |
| 20260507234003 | 58 | 36 | 0.0 | 0.0 | 0.00 | 0.37 | 0.18 | 49 | 1008.3 |
| 20260507233503 | 59 | 36 | 0.0 | 0.0 | 0.00 | 0.37 | 0.18 | 47 | 1008.2 |
| 20260507233007 | 59 | 36 | 0.0 | 0.0 | 0.00 | 0.37 | 0.18 | 45 | 1008.2 |
| 20260507232504 | 60 | 36 | 0.0 | 0.0 | 0.00 | 0.37 | 0.18 | 45 | 1008.2 |
| 20260507232003 | 60 | 36 | 0.0 | 2.0 | 0.00 | 0.37 | 0.18 | 43 | 1008.1 |
| 20260507231505 | 62 | 36 | 0.0 | 2.0 | 0.00 | 0.37 | 0.18 | 37 | 1008.0 |
| 20260507231003 | 62 | 40 | 0.0 | 2.0 | 0.00 | 0.37 | 0.18 | 37 | 1008.0 |
| 20260507230505 | 62 | 45 | 0.0 | 2.0 | 0.00 | 0.37 | 0.18 | 39 | 1008.0 |
| 20260507230008 | 62 | 65 | 0.0 | 2.0 | 0.00 | 0.37 | 0.18 | 38 | 1008.1 |
| 20260507225503 | 62 | 51 | 0.0 | 2.0 | 0.00 | 0.37 | 0.18 | 37 | 1008.0 |
| 20260507225007 | 63 | 69 | 1.0 | 3.0 | 0.00 | 0.37 | 0.18 | 36 | 1007.9 |
| 20260507224508 | 63 | 24 | 0.0 | 3.0 | 0.00 | 0.37 | 0.18 | 38 | 1007.9 |
| 20260507224004 | 63 | 27 | 1.0 | 3.0 | 0.00 | 0.37 | 0.18 | 36 | 1008.0 |
| 20260507223504 | 63 | 75 | 1.0 | 3.0 | 0.00 | 0.37 | 0.18 | 36 | 1008.1 |
| 20260507223008 | 63 | 43 | 1.0 | 3.0 | 0.00 | 0.37 | 0.18 | 37 | 1008.1 |
| 20260507222504 | 63 | 74 | 1.0 | 3.0 | 0.00 | 0.37 | 0.18 | 34 | 1008.1 |
| 20260507222003 | 64 | 352 | 1.0 | 5.0 | 0.00 | 0.37 | 0.18 | 34 | 1008.1 |
| 20260507221516 | 64 | 311 | 1.0 | 6.0 | 0.00 | 0.37 | 0.18 | 33 | 1008.1 |
| 20260507221007 | 65 | 78 | 3.0 | 6.0 | 0.00 | 0.37 | 0.18 | 34 | 1008.1 |
| 20260507220506 | 65 | 32 | 1.0 | 4.0 | 0.00 | 0.37 | 0.18 | 35 | 1008.1 |
| 20260507220012 | 65 | 30 | 1.0 | 3.0 | 0.00 | 0.37 | 0.18 | 35 | 1008.1 |
| 20260507215503 | 65 | 53 | 0.0 | 3.0 | 0.00 | 0.37 | 0.18 | 38 | 1008.2 |
| 20260507215002 | 65 | 297 | 1.0 | 3.0 | 0.00 | 0.37 | 0.18 | 35 | 1008.2 |
| 20260507214511 | 64 | 50 | 0.0 | 3.0 | 0.00 | 0.37 | 0.18 | 35 | 1008.1 |
| 20260507214003 | 64 | 55 | 1.0 | 3.0 | 0.00 | 0.37 | 0.18 | 38 | 1008.2 |
| 20260507213509 | 65 | 300 | 2.0 | 4.0 | 0.00 | 0.37 | 0.18 | 35 | 1008.2 |
| 20260507213013 | 64 | 336 | 1.0 | 5.0 | 0.00 | 0.37 | 0.18 | 36 | 1008.2 |
| 20260507212504 | 63 | 39 | 0.0 | 5.0 | 0.00 | 0.37 | 0.18 | 37 | 1008.1 |
| 20260507212004 | 64 | 11 | 2.0 | 5.0 | 0.00 | 0.37 | 0.18 | 35 | 1008.1 |
| 20260507211512 | 65 | 23 | 1.0 | 4.0 | 0.00 | 0.37 | 0.18 | 35 | 1008.1 |
| 20260507211004 | 65 | 321 | 2.0 | 7.0 | 0.00 | 0.37 | 0.18 | 33 | 1008.0 |
| 20260507210504 | 65 | 20 | 2.0 | 7.0 | 0.00 | 0.37 | 0.18 | 33 | 1008.0 |
| 20260507210028 | 65 | 57 | 2.0 | 8.0 | 0.00 | 0.37 | 0.18 | 35 | 1007.9 |
| 20260507205504 | 66 | 309 | 2.0 | 9.0 | 0.00 | 0.37 | 0.18 | 35 | 1007.9 |
| 20260507205004 | 66 | 301 | 3.0 | 9.0 | 0.00 | 0.37 | 0.18 | 39 | 1007.9 |
| 20260507204511 | 67 | 53 | 2.0 | 5.0 | 0.00 | 0.37 | 0.18 | 33 | 1007.9 |
| 20260507204003 | 66 | 34 | 1.0 | 4.0 | 0.00 | 0.37 | 0.18 | 37 | 1007.8 |
| 20260507203504 | 65 | 321 | 1.0 | 4.0 | 0.00 | 0.37 | 0.18 | 33 | 1007.8 |
| 20260507203012 | 66 | 19 | 2.0 | 9.0 | 0.00 | 0.37 | 0.18 | 36 | 1007.8 |
| 20260507202504 | 65 | 19 | 2.0 | 9.0 | 0.00 | 0.37 | 0.18 | 35 | 1007.9 |
| 20260507202005 | 66 | 71 | 2.0 | 7.0 | 0.00 | 0.37 | 0.18 | 36 | 1007.9 |
| 20260507201512 | 65 | 12 | 1.0 | 5.0 | 0.00 | 0.37 | 0.18 | 40 | 1008.0 |
| 20260507201003 | 65 | 53 | 1.0 | 5.0 | 0.00 | 0.37 | 0.18 | 35 | 1008.0 |
| 20260507200504 | 65 | 300 | 1.0 | 9.0 | 0.00 | 0.37 | 0.18 | 38 | 1008.1 |
| 20260507200015 | 64 | 317 | 3.0 | 9.0 | 0.00 | 0.37 | 0.18 | 38 | 1008.2 |
| 20260507195506 | 64 | 253 | 2.0 | 7.0 | 0.00 | 0.37 | 0.18 | 35 | 1008.2 |
| 20260507195004 | 65 | 11 | 2.0 | 6.0 | 0.00 | 0.37 | 0.18 | 36 | 1008.2 |
| 20260507194512 | 65 | 44 | 1.0 | 6.0 | 0.00 | 0.37 | 0.18 | 40 | 1008.3 |
| 20260507194007 | 65 | 36 | 1.0 | 6.0 | 0.00 | 0.37 | 0.18 | 35 | 1008.4 |
| 20260507193506 | 65 | 104 | 1.0 | 6.0 | 0.00 | 0.37 | 0.18 | 37 | 1008.5 |
| 20260507193011 | 64 | 68 | 1.0 | 6.0 | 0.00 | 0.37 | 0.18 | 36 | 1008.6 |
| 20260507192505 | 64 | 52 | 3.0 | 6.0 | 0.00 | 0.37 | 0.18 | 37 | 1008.6 |
| 20260507192004 | 64 | 191 | 2.0 | 6.0 | 0.00 | 0.37 | 0.18 | 37 | 1008.7 |
| 20260507191514 | 63 | 49 | 2.0 | 6.0 | 0.00 | 0.37 | 0.18 | 38 | 1008.8 |
| 20260507191004 | 64 | 331 | 3.0 | 7.0 | 0.00 | 0.37 | 0.18 | 39 | 1008.9 |
| 20260507190504 | 64 | 320 | 2.0 | 7.0 | 0.00 | 0.37 | 0.18 | 39 | 1008.9 |
| 20260507190014 | 64 | 84 | 2.0 | 9.0 | 0.00 | 0.37 | 0.18 | 38 | 1008.8 |
| 20260507185507 | 63 | 348 | 3.0 | 9.0 | 0.00 | 0.37 | 0.18 | 37 | 1008.8 |
| 20260507185005 | 64 | 312 | 3.0 | 13.0 | 0.00 | 0.37 | 0.18 | 43 | 1008.9 |
| 20260507184518 | 64 | 311 | 2.0 | 13.0 | 0.00 | 0.37 | 0.18 | 40 | 1009.0 |
| 20260507184007 | 63 | 264 | 2.0 | 11.0 | 0.00 | 0.37 | 0.18 | 41 | 1009.0 |
| 20260507183505 | 64 | 24 | 3.0 | 8.0 | 0.00 | 0.37 | 0.18 | 38 | 1009.2 |
| 20260507183012 | 64 | 297 | 3.0 | 9.0 | 0.00 | 0.37 | 0.18 | 43 | 1009.2 |
| 20260507182509 | 63 | 34 | 4.0 | 9.0 | 0.00 | 0.37 | 0.18 | 39 | 1009.3 |
| 20260507182009 | 63 | 77 | 3.0 | 9.0 | 0.00 | 0.37 | 0.18 | 37 | 1009.3 |
| 20260507181515 | 63 | 11 | 2.0 | 7.0 | 0.00 | 0.37 | 0.18 | 42 | 1009.3 |
| 20260507181008 | 62 | 317 | 3.0 | 7.0 | 0.00 | 0.37 | 0.18 | 38 | 1009.3 |
| 20260507180506 | 62 | 15 | 2.0 | 7.0 | 0.00 | 0.37 | 0.18 | 42 | 1009.5 |
| 20260507180014 | 63 | 312 | 3.0 | 8.0 | 0.00 | 0.37 | 0.18 | 39 | 1009.5 |
| 20260507175506 | 63 | 5 | 3.0 | 11.0 | 0.00 | 0.37 | 0.18 | 43 | 1009.5 |
| 20260507175007 | 63 | 36 | 4.0 | 12.0 | 0.00 | 0.37 | 0.18 | 41 | 1009.5 |
| 20260507174516 | 62 | 305 | 4.0 | 12.0 | 0.00 | 0.37 | 0.18 | 40 | 1009.5 |
| 20260507174009 | 62 | 64 | 2.0 | 8.0 | 0.00 | 0.37 | 0.18 | 40 | 1009.7 |
| 20260507173507 | 62 | 269 | 3.0 | 10.0 | 0.00 | 0.37 | 0.18 | 41 | 1009.9 |
| 20260507173020 | 62 | 323 | 5.0 | 10.0 | 0.00 | 0.37 | 0.18 | 39 | 1010.0 |
| 20260507172509 | 63 | 72 | 2.0 | 5.0 | 0.00 | 0.37 | 0.18 | 43 | 1010.0 |
| 20260507172002 | 63 | 33 | 2.0 | 6.0 | 0.00 | 0.37 | 0.18 | 46 | 1010.0 |
| 20260507171514 | 62 | 62 | 1.0 | 9.0 | 0.00 | 0.37 | 0.18 | 47 | 1010.1 |
| 20260507171007 | 62 | 333 | 3.0 | 11.0 | 0.00 | 0.37 | 0.18 | 40 | 1010.2 |
| 20260507170507 | 61 | 46 | 5.0 | 11.0 | 0.00 | 0.37 | 0.18 | 42 | 1010.3 |
| 20260507170019 | 62 | 341 | 2.0 | 8.0 | 0.00 | 0.37 | 0.18 | 44 | 1010.3 |
| 20260507165506 | 62 | 25 | 2.0 | 8.0 | 0.00 | 0.37 | 0.18 | 42 | 1010.2 |
| 20260507165006 | 62 | 57 | 3.0 | 8.0 | 0.00 | 0.37 | 0.18 | 45 | 1010.2 |
| 20260507164516 | 61 | 9 | 1.0 | 7.0 | 0.00 | 0.37 | 0.18 | 52 | 1010.3 |
| 20260507164007 | 61 | 51 | 2.0 | 7.0 | 0.00 | 0.37 | 0.18 | 48 | 1010.5 |
| 20260507163506 | 60 | 37 | 3.0 | 9.0 | 0.00 | 0.37 | 0.18 | 51 | 1010.6 |
| 20260507163018 | 60 | 323 | 3.0 | 9.0 | 0.00 | 0.37 | 0.18 | 49 | 1010.7 |
| 20260507162509 | 61 | 12 | 3.0 | 11.0 | 0.00 | 0.37 | 0.18 | 47 | 1010.7 |
| 20260507162008 | 61 | 334 | 4.0 | 10.0 | 0.00 | 0.37 | 0.18 | 49 | 1010.7 |
| 20260507161518 | 60 | 75 | 2.0 | 8.0 | 0.00 | 0.37 | 0.18 | 50 | 1010.8 |
| 20260507161005 | 60 | 63 | 1.0 | 7.0 | 0.00 | 0.37 | 0.18 | 53 | 1010.8 |
| 20260507160504 | 60 | 61 | 3.0 | 9.0 | 0.00 | 0.37 | 0.18 | 54 | 1011.0 |
| 20260507160021 | 59 | 28 | 1.0 | 9.0 | 0.00 | 0.37 | 0.18 | 55 | 1011.0 |
| 20260507155510 | 59 | 281 | 3.0 | 8.0 | 0.00 | 0.37 | 0.18 | 50 | 1011.0 |
| 20260507155007 | 59 | 5 | 2.0 | 9.0 | 0.00 | 0.37 | 0.18 | 52 | 1011.0 |
| 20260507154529 | 59 | 42 | 0.0 | 11.0 | 0.00 | 0.37 | 0.18 | 53 | 1011.1 |
| 20260507154009 | 58 | 289 | 2.0 | 11.0 | 0.00 | 0.37 | 0.18 | 55 | 1011.2 |
| 20260507153506 | 58 | 352 | 4.0 | 11.0 | 0.00 | 0.37 | 0.18 | 54 | 1011.3 |
| 20260507153030 | 59 | 17 | 2.0 | 9.0 | 0.00 | 0.37 | 0.18 | 53 | 1011.6 |
| 20260507152510 | 59 | 352 | 3.0 | 9.0 | 0.00 | 0.37 | 0.18 | 55 | 1011.7 |
| 20260507152009 | 58 | 36 | 2.0 | 8.0 | 0.00 | 0.37 | 0.18 | 63 | 1011.8 |
| 20260507151521 | 57 | 352 | 3.0 | 5.0 | 0.00 | 0.37 | 0.18 | 58 | 1011.8 |
| 20260507151007 | 58 | 46 | 3.0 | 5.0 | 0.00 | 0.37 | 0.18 | 61 | 1011.7 |
| 20260507150507 | 57 | 331 | 2.0 | 6.0 | 0.00 | 0.37 | 0.18 | 63 | 1011.7 |
| 20260507150020 | 56 | 319 | 2.0 | 6.0 | 0.00 | 0.37 | 0.18 | 62 | 1011.8 |
| 20260507145505 | 57 | 35 | 2.0 | 6.0 | 0.00 | 0.37 | 0.18 | 61 | 1011.7 |
| 20260507145010 | 57 | 34 | 1.0 | 8.0 | 0.00 | 0.37 | 0.18 | 65 | 1011.8 |
| 20260507144521 | 57 | 13 | 3.0 | 8.0 | 0.00 | 0.37 | 0.18 | 65 | 1011.8 |
| 20260507144007 | 57 | 59 | 2.0 | 7.0 | 0.00 | 0.37 | 0.18 | 65 | 1011.8 |
| 20260507143507 | 56 | 44 | 3.0 | 6.0 | 0.00 | 0.37 | 0.18 | 66 | 1012.0 |
| 20260507143025 | 57 | 360 | 2.0 | 7.0 | 0.00 | 0.37 | 0.18 | 68 | 1012.1 |
| 20260507142509 | 56 | 44 | 3.0 | 7.0 | 0.00 | 0.37 | 0.18 | 67 | 1012.1 |
| 20260507142010 | 56 | 69 | 2.0 | 10.0 | 0.00 | 0.37 | 0.18 | 66 | 1012.1 |
| 20260507141520 | 56 | 360 | 2.0 | 11.0 | 0.00 | 0.37 | 0.18 | 69 | 1012.1 |
| 20260507141007 | 55 | 76 | 2.0 | 11.0 | 0.00 | 0.37 | 0.18 | 67 | 1012.2 |
| 20260507140507 | 55 | 47 | 2.0 | 7.0 | 0.00 | 0.37 | 0.18 | 67 | 1012.2 |
| 20260507140019 | 55 | 5 | 3.0 | 7.0 | 0.00 | 0.37 | 0.18 | 69 | 1012.1 |
| 20260507135506 | 55 | 5 | 2.0 | 8.0 | 0.00 | 0.37 | 0.18 | 69 | 1012.1 |
| 20260507135006 | 54 | 10 | 2.0 | 8.0 | 0.00 | 0.37 | 0.18 | 67 | 1012.1 |
| 20260507134523 | 54 | 69 | 2.0 | 7.0 | 0.00 | 0.37 | 0.18 | 70 | 1012.1 |
| 20260507134006 | 54 | 317 | 3.0 | 7.0 | 0.00 | 0.37 | 0.18 | 70 | 1012.1 |
| 20260507133506 | 54 | 40 | 2.0 | 5.0 | 0.00 | 0.37 | 0.18 | 72 | 1012.2 |
| 20260507133022 | 55 | 31 | 2.0 | 5.0 | 0.00 | 0.37 | 0.18 | 75 | 1012.1 |
| 20260507132506 | 54 | 40 | 1.0 | 5.0 | 0.00 | 0.37 | 0.18 | 73 | 1012.1 |
| 20260507132010 | 54 | 51 | 1.0 | 5.0 | 0.00 | 0.37 | 0.18 | 73 | 1012.1 |
| 20260507131524 | 54 | 11 | 2.0 | 7.0 | 0.00 | 0.37 | 0.18 | 76 | 1012.0 |
| 20260507131007 | 54 | 338 | 2.0 | 7.0 | 0.00 | 0.37 | 0.18 | 75 | 1012.1 |
| 20260507130510 | 54 | 334 | 3.0 | 7.0 | 0.00 | 0.37 | 0.18 | 76 | 1012.1 |
| 20260507130035 | 54 | 324 | 1.0 | 5.0 | 0.00 | 0.37 | 0.18 | 78 | 1012.2 |
| 20260507125513 | 53 | 352 | 1.0 | 5.0 | 0.00 | 0.37 | 0.18 | 78 | 1012.1 |
| 20260507125012 | 53 | 315 | 2.0 | 5.0 | 0.00 | 0.37 | 0.18 | 80 | 1012.1 |
| 20260507124527 | 52 | 39 | 2.0 | 5.0 | 0.00 | 0.37 | 0.18 | 80 | 1012.1 |
| 20260507124007 | 52 | 17 | 2.0 | 5.0 | 0.00 | 0.37 | 0.18 | 79 | 1012.2 |
| 20260507123511 | 52 | 333 | 1.0 | 4.0 | 0.00 | 0.37 | 0.18 | 80 | 1012.2 |
| 20260507123018 | 52 | 352 | 1.0 | 5.0 | 0.00 | 0.37 | 0.18 | 81 | 1012.3 |
| 20260507122507 | 52 | 22 | 2.0 | 6.0 | 0.00 | 0.37 | 0.18 | 81 | 1012.3 |
| 20260507122012 | 52 | 304 | 2.0 | 6.0 | 0.00 | 0.37 | 0.18 | 81 | 1012.1 |
| 20260507121522 | 52 | 12 | 2.0 | 4.0 | 0.00 | 0.37 | 0.18 | 83 | 1012.1 |
| 20260507121003 | 51 | 307 | 1.0 | 4.0 | 0.00 | 0.37 | 0.18 | 83 | 1012.1 |
| 20260507120509 | 51 | 295 | 1.0 | 4.0 | 0.00 | 0.37 | 0.18 | 84 | 1012.1 |
| 20260507120018 | 51 | 29 | 1.0 | 4.0 | 0.00 | 0.37 | 0.18 | 84 | 1012.0 |
| 20260507115504 | 51 | 360 | 1.0 | 3.0 | 0.00 | 0.37 | 0.18 | 84 | 1012.1 |
| 20260507115009 | 51 | 360 | 1.0 | 3.0 | 0.00 | 0.37 | 0.18 | 85 | 1012.1 |
| 20260507114512 | 51 | 360 | 1.0 | 4.0 | 0.00 | 0.37 | 0.18 | 85 | 1012.1 |
| 20260507114014 | 51 | 360 | 1.0 | 4.0 | 0.00 | 0.37 | 0.18 | 85 | 1012.1 |
| 20260507113504 | 51 | 360 | 1.0 | 3.0 | 0.00 | 0.37 | 0.18 | 85 | 1012.0 |
| 20260507113018 | 51 | 360 | 2.0 | 3.0 | 0.00 | 0.37 | 0.18 | 86 | 1011.8 |
| 20260507112509 | 50 | 360 | 0.0 | 3.0 | 0.00 | 0.37 | 0.18 | 86 | 1011.7 |
| 20260507112009 | 50 | 360 | 1.0 | 3.0 | 0.00 | 0.37 | 0.18 | 87 | 1011.7 |
| 20260507111521 | 50 | 360 | 1.0 | 3.0 | 0.00 | 0.37 | 0.18 | 87 | 1011.7 |
| 20260507111007 | 50 | 360 | 1.0 | 3.0 | 0.00 | 0.37 | 0.18 | 88 | 1011.6 |
| 20260507110510 | 50 | 360 | 1.0 | 2.0 | 0.00 | 0.37 | 0.18 | 88 | 1011.3 |
| 20260507110004 | 50 | 360 | 0.0 | 2.0 | 0.00 | 0.37 | 0.18 | 88 | 1011.2 |
| 20260507105505 | 50 | 360 | 0.0 | 2.0 | 0.00 | 0.37 | 0.18 | 89 | 1011.2 |
| 20260507105004 | 50 | 360 | 0.0 | 2.0 | 0.00 | 0.37 | 0.18 | 89 | 1011.1 |
| 20260507104511 | 50 | 360 | 0.0 | 2.0 | 0.00 | 0.37 | 0.18 | 89 | 1011.2 |
| 20260507104008 | 50 | 318 | 0.0 | 2.0 | 0.00 | 0.37 | 0.18 | 89 | 1011.3 |
| 20260507103504 | 50 | 318 | 0.0 | 2.0 | 0.00 | 0.37 | 0.18 | 89 | 1011.1 |
| 20260507103026 | 50 | 318 | 0.0 | 2.0 | 0.00 | 0.37 | 0.18 | 89 | 1011.0 |
| 20260507102507 | 50 | 318 | 0.0 | 2.0 | 0.00 | 0.37 | 0.18 | 89 | 1010.7 |
| 20260507102006 | 49 | 318 | 0.0 | 2.0 | 0.00 | 0.37 | 0.18 | 89 | 1010.6 |
| 20260507101518 | 49 | 318 | 0.0 | 2.0 | 0.00 | 0.37 | 0.18 | 89 | 1010.7 |
| 20260507101007 | 49 | 318 | 0.0 | 2.0 | 0.00 | 0.37 | 0.18 | 89 | 1010.8 |
| 20260507100506 | 49 | 318 | 0.0 | 2.0 | 0.00 | 0.37 | 0.18 | 89 | 1010.8 |
| 20260507100027 | 49 | 318 | 0.0 | 2.0 | 0.00 | 0.37 | 0.18 | 88 | 1010.9 |
| 20260507095509 | 49 | 331 | 0.0 | 2.0 | 0.00 | 0.37 | 0.18 | 89 | 1010.9 |
| 20260507095004 | 49 | 325 | 0.0 | 2.0 | 0.00 | 0.37 | 0.18 | 89 | 1010.7 |
| 20260507094511 | 49 | 327 | 0.0 | 2.0 | 0.00 | 0.37 | 0.18 | 89 | 1010.8 |
| 20260507094003 | 49 | 327 | 0.0 | 2.0 | 0.00 | 0.37 | 0.18 | 88 | 1010.6 |
| 20260507093504 | 49 | 327 | 0.0 | 2.0 | 0.00 | 0.37 | 0.18 | 88 | 1010.8 |
| 20260507093012 | 49 | 336 | 1.0 | 2.0 | 0.00 | 0.37 | 0.18 | 88 | 1010.6 |
| 20260507092513 | 49 | 325 | 0.0 | 3.0 | 0.00 | 0.37 | 0.18 | 88 | 1010.5 |
| 20260507092006 | 49 | 19 | 0.0 | 3.0 | 0.00 | 0.37 | 0.18 | 88 | 1010.4 |
| 20260507091524 | 49 | 23 | 1.0 | 3.0 | 0.00 | 0.37 | 0.18 | 88 | 1010.6 |
| 20260507091006 | 50 | 329 | 0.0 | 3.0 | 0.00 | 0.37 | 0.18 | 88 | 1010.6 |
| 20260507090507 | 50 | 45 | 1.0 | 3.0 | 0.00 | 0.37 | 0.18 | 88 | 1010.4 |
| 20260507090022 | 50 | 309 | 1.0 | 2.0 | 0.00 | 0.37 | 0.18 | 88 | 1010.4 |
| 20260507085507 | 50 | 12 | 1.0 | 3.0 | 0.00 | 0.37 | 0.18 | 88 | 1010.3 |
| 20260507085009 | 50 | 5 | 1.0 | 3.0 | 0.00 | 0.37 | 0.18 | 88 | 1010.2 |
| 20260507084526 | 50 | 5 | 1.0 | 3.0 | 0.00 | 0.37 | 0.18 | 88 | 1010.2 |
| 20260507084010 | 50 | 323 | 0.0 | 4.0 | 0.00 | 0.37 | 0.18 | 88 | 1010.0 |
| 20260507083504 | 50 | 20 | 2.0 | 5.0 | 0.00 | 0.37 | 0.18 | 88 | 1010.1 |
| 20260507083009 | 50 | 5 | 1.0 | 5.0 | 0.00 | 0.37 | 0.18 | 88 | 1010.0 |
| 20260507082504 | 50 | 315 | 2.0 | 4.0 | 0.00 | 0.37 | 0.18 | 88 | 1010.1 |
| 20260507082004 | 50 | 13 | 1.0 | 6.0 | 0.00 | 0.37 | 0.18 | 87 | 1010.1 |
| 20260507081515 | 50 | 360 | 3.0 | 6.0 | 0.00 | 0.37 | 0.18 | 87 | 1010.2 |
| 20260507081007 | 50 | 49 | 2.0 | 5.0 | 0.00 | 0.37 | 0.18 | 87 | 1010.2 |
| 20260507080507 | 50 | 340 | 2.0 | 9.0 | 0.00 | 0.37 | 0.18 | 87 | 1010.4 |
| 20260507080018 | 50 | 350 | 2.0 | 9.0 | 0.00 | 0.37 | 0.18 | 87 | 1010.4 |
| 20260507075509 | 50 | 23 | 1.0 | 9.0 | 0.00 | 0.37 | 0.18 | 87 | 1010.5 |
| 20260507075009 | 50 | 360 | 2.0 | 6.0 | 0.00 | 0.37 | 0.18 | 87 | 1010.9 |
| 20260507074527 | 50 | 329 | 2.0 | 7.0 | 0.00 | 0.37 | 0.18 | 87 | 1010.8 |
| 20260507074012 | 50 | 347 | 2.0 | 7.0 | 0.00 | 0.37 | 0.18 | 88 | 1010.8 |
| 20260507073511 | 50 | 12 | 1.0 | 8.0 | 0.01 | 0.37 | 0.18 | 88 | 1010.5 |
| 20260507073026 | 51 | 5 | 2.0 | 8.0 | 0.03 | 0.37 | 0.18 | 88 | 1010.3 |
| 20260507072507 | 51 | 351 | 2.0 | 6.0 | 0.04 | 0.37 | 0.18 | 88 | 1010.4 |
| 20260507072003 | 51 | 26 | 1.0 | 4.0 | 0.05 | 0.37 | 0.18 | 89 | 1010.6 |
| 20260507071536 | 51 | 42 | 1.0 | 4.0 | 0.08 | 0.37 | 0.18 | 89 | 1010.6 |
| 20260507071007 | 51 | 24 | 1.0 | 3.0 | 0.09 | 0.37 | 0.18 | 89 | 1010.4 |
| 20260507070504 | 51 | 30 | 1.0 | 4.0 | 0.11 | 0.37 | 0.18 | 89 | 1010.3 |
| 20260507070020 | 51 | 22 | 1.0 | 5.0 | 0.11 | 0.37 | 0.18 | 89 | 1010.2 |
| 20260507065506 | 51 | 53 | 1.0 | 5.0 | 0.12 | 0.37 | 0.18 | 89 | 1010.0 |
| 20260507065006 | 51 | 310 | 2.0 | 3.0 | 0.13 | 0.37 | 0.18 | 89 | 1010.2 |
| 20260507064523 | 51 | 22 | 1.0 | 5.0 | 0.16 | 0.37 | 0.18 | 89 | 1010.2 |
| 20260507064010 | 51 | 43 | 2.0 | 5.0 | 0.18 | 0.37 | 0.18 | 88 | 1010.2 |
| 20260507063511 | 51 | 352 | 2.0 | 4.0 | 0.17 | 0.36 | 0.17 | 88 | 1010.2 |
| 20260507063023 | 51 | 317 | 1.0 | 3.0 | 0.15 | 0.34 | 0.15 | 88 | 1010.9 |
| 20260507062511 | 51 | 17 | 2.0 | 4.0 | 0.14 | 0.33 | 0.14 | 87 | 1010.7 |
| 20260507062011 | 52 | 249 | 1.0 | 6.0 | 0.13 | 0.32 | 0.13 | 87 | 1010.5 |
| 20260507061525 | 52 | 58 | 2.0 | 6.0 | 0.10 | 0.29 | 0.10 | 87 | 1010.2 |
| 20260507061004 | 52 | 19 | 1.0 | 5.0 | 0.09 | 0.28 | 0.09 | 86 | 1010.1 |
| 20260507060503 | 52 | 10 | 2.0 | 8.0 | 0.07 | 0.26 | 0.07 | 85 | 1010.5 |
| 20260507060016 | 53 | 67 | 3.0 | 8.0 | 0.07 | 0.26 | 0.07 | 85 | 1010.2 |
| 20260507055505 | 53 | 5 | 2.0 | 5.0 | 0.06 | 0.25 | 0.06 | 85 | 1009.6 |
| 20260507055012 | 54 | 26 | 2.0 | 5.0 | 0.05 | 0.24 | 0.05 | 83 | 1010.4 |
| 20260507054519 | 54 | 268 | 2.0 | 4.0 | 0.02 | 0.21 | 0.02 | 83 | 1011.1 |
| 20260507054014 | 55 | 275 | 1.0 | 3.0 | 0.00 | 0.19 | 0.00 | 83 | 1010.3 |
| 20260507053510 | 55 | 315 | 0.0 | 2.0 | 0.00 | 0.19 | 0.00 | 82 | 1009.5 |
| 20260507053026 | 55 | 23 | 0.0 | 3.0 | 0.00 | 0.19 | 0.00 | 84 | 1009.2 |
| 20260507052510 | 55 | 306 | 1.0 | 3.0 | 0.00 | 0.19 | 0.00 | 83 | 1009.6 |
| 20260507052008 | 55 | 318 | 0.0 | 3.0 | 0.00 | 0.19 | 0.00 | 84 | 1009.8 |
| 20260507051538 | 55 | 5 | 1.0 | 3.0 | 0.00 | 0.19 | 0.00 | 84 | 1009.2 |
| 20260507051009 | 55 | 5 | 1.0 | 2.0 | 0.00 | 0.19 | 0.00 | 84 | 1009.5 |
| 20260507050509 | 55 | 315 | 0.0 | 2.0 | 0.00 | 0.19 | 0.00 | 84 | 1009.4 |
| 20260507050034 | 55 | 306 | 0.0 | 2.0 | 0.00 | 0.19 | 0.00 | 84 | 1009.3 |
| 20260507045504 | 56 | 360 | 0.0 | 2.0 | 0.00 | 0.19 | 0.00 | 84 | 1009.2 |
| 20260507045009 | 56 | 5 | 0.0 | 3.0 | 0.00 | 0.19 | 0.00 | 84 | 1009.3 |
| 20260507044519 | 56 | 43 | 0.0 | 6.0 | 0.01 | 0.19 | 0.00 | 84 | 1009.2 |
| 20260507044004 | 56 | 52 | 1.0 | 6.0 | 0.02 | 0.19 | 0.00 | 83 | 1009.3 |
| 20260507043508 | 56 | 19 | 1.0 | 4.0 | 0.02 | 0.19 | 0.00 | 84 | 1009.5 |
| 20260507043023 | 56 | 40 | 2.0 | 4.0 | 0.02 | 0.19 | 0.00 | 84 | 1009.7 |
| 20260507042510 | 56 | 330 | 2.0 | 5.0 | 0.02 | 0.19 | 0.00 | 84 | 1009.6 |
| 20260507042007 | 57 | 24 | 2.0 | 5.0 | 0.02 | 0.19 | 0.00 | 84 | 1009.7 |
| 20260507041526 | 57 | 296 | 1.0 | 3.0 | 0.03 | 0.19 | 0.00 | 84 | 1009.6 |
| 20260507041010 | 57 | 55 | 1.0 | 2.0 | 0.05 | 0.19 | 0.00 | 84 | 1009.5 |
| 20260507040512 | 57 | 360 | 1.0 | 5.0 | 0.06 | 0.19 | 0.00 | 84 | 1009.3 |
| 20260507040029 | 57 | 11 | 2.0 | 5.0 | 0.10 | 0.19 | 0.00 | 84 | 1009.4 |
| 20260507035512 | 57 | 11 | 1.0 | 4.0 | 0.17 | 0.19 | 0.19 | 84 | 1009.3 |
| 20260507035009 | 58 | 37 | 1.0 | 7.0 | 0.19 | 0.19 | 0.19 | 83 | 1009.5 |
| 20260507034529 | 59 | 56 | 2.0 | 8.0 | 0.18 | 0.18 | 0.18 | 82 | 1009.6 |
| 20260507034007 | 60 | 311 | 2.0 | 8.0 | 0.17 | 0.17 | 0.17 | 83 | 1009.5 |